NOAA 16 DEB, 41273

Orbit data source: Space-Track

NOAA 16 DEB, 41273 is space debris in SSO originally from a launch on Thu, 21 Sep 2000 UTC launched from the Air Force Western Test Range (AFWTR). Debris objects in space refer to the collection of defunct objects orbiting the Earth. Examples of debris include non-operational satellites, rocket bodies, and fragments generated from explosions, collisions, or faulty payload assembly.

Loading next visibility...
Identifier
41273, 2000-055FZ
Orbit
SSO
Country
Flag of USUS
Related business
Manufacturer
Unknown
Mission
Spacecraft
Bus & Motor
Unknown
Mass
Unknown
Launch date (UTC)
2000-09-21 (25 years ago)
Launch vehicle
Unknown
Launch site
Air Force Western Test Range (AFWTR)
Object type
Payload
Rocket body
Debris
Shape & HBR
Unknown shape, 0.1 m
Radar Cross Section
Small (<0.1 m²)

Expand to show TLE details & history
Last TLE update: 1 day ago

TLE from 1 day ago
0 NOAA 16 DEB
1 41273U 00055FZ  25346.61002531  .00027207  00000-0  43475-2 0  9998
2 41273  98.9276 225.4256 0032664 146.3702 213.9584 14.71436600522834
Epoch: 2025-12-12T14:38Z
TLE epoch observation values (Epoch: 2025-12-12T14:38:26.186Z)
Latitude
-0.00003°
Longitude
-75.73269°
Altitude
678.549 km
Speed
7.507 km/s
True Right ascension
15h 01m 42s
True Declination
0° 00' 00"
Sunlit
Object was in daylight at epoch
Visualization orbit readout
Latitude
Unknown
Longitude
Unknown
Altitude
Unknown
Speed
Unknown
Apparent Right ascension
Unknown
Apparent Declination
Unknown
Sunlit
N/A
Visualization observer readout
Local Sidereal Time
20:46:06
Azimuth
Unknown
Elevation
Unknown
Doppler factor
Unknown
Orbital elements
Apogee altitude
676.555 km
Perigee altitude
630.618 km
Semi-major axis
7,031.724 km
Eccentricity
0.00327
Inclination
98.9276°
RAAN
225.4256°
Arg. of periapsis
146.3702°
True anomaly
213.75002°
Mean anomaly
213.9584°
Eccentric anomaly
213.85414°
Mean motion
3.68087 °/min
Orbital period
97.8 mins
BSTAR
0.0043475
Loading maneuver chart data...
Computing Atmospheric mass density...
Loading historical data...
Loading historical data...
Loading historical data...
Loading historical data...
Loading historical data...
Loading historical data...
Loading historical data...

Documentation

Showing up to 5 results
|